TimeEST,TemperatureF,Dew PointF,Humidity,Sea Level PressureIn,VisibilityMPH,Wind Direction,Wind SpeedMPH,Gust SpeedMPH,PrecipitationIn,Events,Conditions,WindDirDegrees,DateUTC
12:53 AM,48.0,37.9,68,30.35,10.0,Variable,3.5,-,N/A,,Clear,0,2013-11-04 05:53:00
1:53 AM,46.0,39.0,76,30.36,10.0,ENE,3.5,-,N/A,,Clear,60,2013-11-04 06:53:00
2:53 AM,46.0,39.0,76,30.38,10.0,NE,3.5,-,N/A,,Clear,50,2013-11-04 07:53:00
3:53 AM,46.0,37.9,73,30.39,10.0,Variable,3.5,-,N/A,,Clear,0,2013-11-04 08:53:00
4:53 AM,44.1,37.9,79,30.40,10.0,ENE,3.5,-,N/A,,Clear,60,2013-11-04 09:53:00
5:53 AM,44.1,37.9,79,30.42,10.0,Calm,Calm,-,N/A,,Clear,0,2013-11-04 10:53:00
6:53 AM,43.0,37.9,82,30.45,10.0,Calm,Calm,-,N/A,,Clear,0,2013-11-04 11:53:00
7:53 AM,46.0,37.9,73,30.48,10.0,Variable,3.5,-,N/A,,Clear,0,2013-11-04 12:53:00
8:53 AM,51.1,37.0,59,30.48,10.0,ENE,5.8,-,N/A,,Clear,70,2013-11-04 13:53:00
9:53 AM,55.0,32.0,42,30.50,10.0,East,6.9,-,N/A,,Clear,80,2013-11-04 14:53:00
10:53 AM,59.0,32.0,36,30.51,10.0,Variable,3.5,-,N/A,,Clear,0,2013-11-04 15:53:00
11:53 AM,60.1,28.9,31,30.49,10.0,Variable,6.9,-,N/A,,Clear,0,2013-11-04 16:53:00
12:53 PM,62.1,30.0,30,30.45,10.0,Variable,4.6,-,N/A,,Clear,0,2013-11-04 17:53:00
1:53 PM,63.0,28.9,28,30.44,10.0,Variable,4.6,-,N/A,,Clear,0,2013-11-04 18:53:00
2:53 PM,63.0,30.9,30,30.44,10.0,Variable,5.8,-,N/A,,Clear,0,2013-11-04 19:53:00
3:53 PM,63.0,32.0,31,30.44,10.0,Variable,3.5,-,N/A,,Clear,0,2013-11-04 20:53:00
4:53 PM,61.0,32.0,34,30.45,10.0,Variable,3.5,-,N/A,,Clear,0,2013-11-04 21:53:00
5:53 PM,55.0,37.0,51,30.45,10.0,Calm,Calm,-,N/A,,Clear,0,2013-11-04 22:53:00
6:53 PM,51.1,39.0,63,30.46,10.0,Calm,Calm,-,N/A,,Clear,0,2013-11-04 23:53:00
7:53 PM,48.0,39.9,74,30.46,10.0,Calm,Calm,-,N/A,,Clear,0,2013-11-05 00:53:00
8:53 PM,48.0,37.9,68,30.47,10.0,NE,3.5,-,N/A,,Clear,40,2013-11-05 01:53:00
9:53 PM,50.0,35.1,57,30.49,10.0,Variable,3.5,-,N/A,,Clear,0,2013-11-05 02:53:00
10:53 PM,46.9,36.0,66,30.49,10.0,Calm,Calm,-,N/A,,Clear,0,2013-11-05 03:53:00
11:53 PM,46.0,36.0,68,30.50,10.0,Variable,3.5,-,N/A,,Clear,0,2013-11-05 04:53:00